User: anonymous   Login
Location: Unspecified
(0.0000°N, 0.0000°E)
Time: 16:58:22
(UTC+00:00)
Language:

Tansei-1 - Orbit

View from above orbital plane
View from above orbital plane
View from above satellite
View from above satellite

Ground track
Ground track

The orbit data is extracted from the following two-line orbital elements,

1  4952U 71011A   18174.92327508 +.00000057 +00000-0 -12265-4 0  9990
2  4952 029.6667 124.4932 0079772 313.1672 088.1190 13.58475707351821
Epoch (UTC): 23 June 2018 22:09:30
Eccentricity: 0.0079772
inclination: 29.6667°
perigee height: 982 km
apogee height: 1100 km
right ascension of ascending node: 124.4932°
argument of perigee: 313.1672°
revolutions per day: 13.58475707
mean anomaly at epoch: 88.1190°
orbit number at epoch: 35182

The dashed part of the orbit path shows where the satellite is in the earth's shadow,  

DLR